N8PFF Weather Reports


time (UTC)temp
C
wind
direction
speed
KPH
gust
KPH
rain 1hr
cm
rain 24hr
cm
rain mn
cm
humidity
%
barometer
mb
20260505101539 15 141 0.0 6.4 0.00 0.00 0.00 76 1007.7
20260505100029 16 126 0.0 4.8 0.00 0.00 0.00 75 1007.6
20260505094537 16 128 1.6 8.0 0.00 0.00 0.00 74 1007.3
20260505093056 16 160 3.2 8.0 0.00 0.00 0.00 75 1007.2
20260505091603 16 155 3.2 4.8 0.00 0.00 0.00 75 1007.1
20260505090058 16 165 0.0 9.7 0.00 0.00 0.00 75 1006.9
20260505084512 16 164 1.6 8.0 0.00 0.00 0.00 74 1006.7
20260505083025 16 148 1.6 11.3 0.00 0.00 0.00 74 1006.7
20260505081528 17 169 3.2 9.7 0.00 0.00 0.00 74 1006.6
20260505080046 17 146 1.6 9.7 0.00 0.00 0.00 74 1006.6
20260505074552 17 158 1.6 11.3 0.00 0.00 0.00 73 1006.4
20260505073008 17 135 4.8 9.7 0.00 0.00 0.00 73 1006.2
20260505071528 17 160 3.2 11.3 0.00 0.00 0.00 73 1006.1
20260505070029 17 186 3.2 11.3 0.00 0.00 0.00 73 1006.0
20260505064538 17 136 1.6 9.7 0.00 0.00 0.00 73 1006.0
20260505063037 17 272 1.6 6.4 0.00 0.00 0.00 73 1006.1
20260505061502 17 273 1.6 8.0 0.00 0.00 0.00 72 1006.3
20260505060007 17 162 3.2 9.7 0.00 0.00 0.00 71 1006.5
20260505054511 17 170 3.2 8.0 0.00 0.00 0.00 71 1006.7
20260505053024 18 157 1.6 12.9 0.00 0.00 0.00 71 1006.8
20260505051529 18 160 3.2 12.9 0.00 0.00 0.00 71 1006.8
20260505041501 17 141 1.6 6.4 0.00 0.00 0.00 74 1006.8
20260505040014 17 178 0.0 3.2 0.00 0.00 0.00 75 1006.9
20260505034520 17 133 0.0 8.0 0.00 0.00 0.00 75 1006.9
20260505033031 17 133 0.0 3.2 0.00 0.00 0.00 74 1006.9
20260505031553 17 142 0.0 4.8 0.00 0.00 0.00 74 1006.8
20260505030052 17 155 0.0 4.8 0.00 0.00 0.00 73 1006.7
20260505024512 17 150 0.0 4.8 0.00 0.00 0.00 73 1006.8
20260505023022 17 149 1.6 6.4 0.00 0.00 0.00 72 1006.9
20260505021528 17 117 0.0 0.0 0.00 0.00 0.00 72 1006.9
20260505020032 17 130 0.0 3.2 0.00 0.00 0.00 71 1006.8
20260505014551 17 92 0.0 0.0 0.00 0.00 0.00 70 1006.7
20260505013006 17 86 0.0 0.0 0.00 0.00 0.00 70 1006.7
20260505011525 17 143 0.0 3.2 0.00 0.00 0.00 69 1006.6
20260505010053 18 155 0.0 3.2 0.00 0.00 0.00 68 1006.5
20260505004550 19 152 0.0 4.8 0.00 0.00 0.00 65 1006.5
20260505003103 20 130 0.0 8.0 0.00 0.00 0.00 64 1006.4
20260505001509 20 139 3.2 9.7 0.00 0.00 0.00 62 1006.4
20260505000023 20 143 3.2 9.7 0.00 0.00 0.00 61 1006.4
20260504234534 21 147 1.6 9.7 0.00 0.00 0.00 59 1006.7
20260504233043 21 150 4.8 12.9 0.00 0.00 0.00 58 1006.9
20260504231545 21 155 3.2 9.7 0.00 0.00 0.00 58 1006.9
20260504224601 22 277 6.4 22.5 0.00 0.00 0.00 56 1007.0
20260504223018 21 205 6.4 20.9 0.00 0.00 0.00 58 1007.3
20260504221524 21 139 6.4 19.3 0.00 0.00 0.00 58 1007.3
20260504220040 21 238 6.4 16.1 0.00 0.00 0.00 58 1007.0
20260504214616 21 221 3.2 17.7 0.00 0.00 0.00 59 1006.7
20260504213006 21 222 6.4 24.1 0.00 0.00 0.00 57 1007.2
20260504211524 21 222 9.7 29.0 0.00 0.00 0.00 57 1007.6
20260504210025 22 269 14.5 29.0 0.00 0.00 0.00 55 1007.8
20260504204535 22 257 12.9 30.6 0.00 0.00 0.00 54 1007.7
20260504203006 23 144 8.0 27.4 0.00 0.00 0.00 54 1007.5
20260504201523 22 231 6.4 24.1 0.00 0.00 0.00 55 1007.6
20260504200033 22 163 11.3 30.6 0.00 0.00 0.00 52 1007.5
20260504194548 22 162 4.8 22.5 0.00 0.00 0.00 51 1007.5
20260504193041 23 227 11.3 17.7 0.00 0.00 0.00 51 1007.5
20260504191542 22 151 6.4 14.5 0.00 0.00 0.00 53 1007.6
20260504190004 22 252 6.4 22.5 0.00 0.00 0.00 52 1007.8
20260504184521 22 278 6.4 17.7 0.00 0.00 0.00 53 1007.9
20260504183028 22 150 8.0 37.0 0.00 0.00 0.00 53 1008.1
20260504181532 22 258 8.0 19.3 0.00 0.00 0.00 54 1008.2
20260504180013 22 259 4.8 12.9 0.00 0.00 0.00 56 1008.3
20260504174531 22 260 4.8 16.1 0.00 0.00 0.00 58 1008.5
20260504173037 21 188 6.4 17.7 0.00 0.00 0.00 57 1008.6
20260504171550 21 217 3.2 17.7 0.00 0.00 0.00 57 1008.9